Simultaneous Nadir Overpasses (SNOs) Predictions

Prediction of SNOs between AURA and NPP Satellite Orbit:

Table of predicted SNOs for the next 14.0 days since TLE Epoch: 8/13/2022
Index Date (AURA) Time (AURA) Lat,Lon (AURA) SZA (AURA ) Date (NPP) Time (NPP) Lat,Lon (NPP) SZA (NPP ) Distance(km) Time Diff (sec)
1 08/13/2022 11:25:32 -79.46, 85.21 101.69 08/13/2022 11:25:22 -79.47, 85.28 101.70 1.59 10
2 08/13/2022 12:14:52 79.68,-105.57 77.99 08/13/2022 12:16:00 79.68,-105.62 77.95 1.10 68
3 08/16/2022 02:52:40 79.22, 31.86 79.45 08/16/2022 02:51:41 79.21, 31.76 79.51 2.09 59
4 08/16/2022 03:41:59 -79.54,-158.39 101.01 08/16/2022 03:42:17 -79.53,-158.40 101.02 0.14 18
5 08/18/2022 19:09:06 79.32, 148.38 80.13 08/18/2022 19:08:35 79.31, 148.29 80.16 1.87 31
6 08/18/2022 19:58:25 -79.63, -41.82 100.33 08/18/2022 19:59:11 -79.63, -41.81 100.37 0.26 46
7 08/21/2022 11:25:29 79.48, -94.66 80.73 08/21/2022 11:25:26 79.48, -94.65 80.73 0.32 3
8 08/21/2022 12:14:36 -80.20, 78.67 100.40 08/21/2022 12:15:50 -80.14, 78.89 100.48 8.54 74
9 08/24/2022 02:52:36 -79.29,-147.66 98.16 08/24/2022 02:51:44 -79.29,-147.65 98.12 0.25 52
10 08/24/2022 03:41:56 79.51, 21.43 81.55 08/24/2022 03:42:22 79.50, 21.33 81.54 2.08 26
11 08/26/2022 19:09:01 -79.39, -31.14 97.42 08/26/2022 19:08:38 -79.39, -31.15 97.40 0.33 23



Historial Predications of SNOs between AURA and NPP
